EW6434 Weather Reports


time (UTC)temp
F
wind
direction
speed
knots
gust
knots
rain 1hr
in
rain 24hr
in
rain mn
in
humidity
%
barometer
mb
20260902200038 69 60 1.7 7.0 0.00 0.03 0.03 41 1013.2
20260902194547 66 68 0.0 6.1 0.00 0.03 0.03 46 1013.6
20260902193029 64 161 0.0 7.8 0.00 0.03 0.03 46 1013.9
20260902191537 67 254 0.0 5.2 0.00 0.03 0.03 44 1013.9
20260902190027 66 101 0.9 7.8 0.00 0.03 0.03 43 1014.2
20260902184525 66 55 1.7 9.6 0.00 0.03 0.03 46 1014.4
20260902183028 66 127 0.0 9.6 0.00 0.03 0.03 47 1014.2
20260902181522 67 151 2.6 7.0 0.00 0.03 0.03 47 1014.5
20260902180018 65 151 0.9 4.3 0.00 0.03 0.03 48 1014.8
20260902174516 64 195 0.0 2.6 0.00 0.03 0.03 46 1014.9
20260902173014 64 273 0.0 3.5 0.01 0.03 0.03 49 1015.1
20260902171513 65 136 0.9 5.2 0.01 0.03 0.03 47 1015.3
20260902170010 64 157 0.0 7.8 0.01 0.03 0.03 51 1015.3
20260902164507 63 114 0.9 3.5 0.01 0.03 0.03 51 1015.5
20260902163003 62 103 0.0 7.0 0.00 0.02 0.02 55 1015.4
20260902161601 60 121 0.0 3.5 0.00 0.02 0.02 60 1015.6
20260902160107 59 139 0.0 1.7 0.00 0.02 0.02 64 1015.6
20260902154558 57 131 0.0 0.0 0.00 0.03 0.02 77 1015.7
20260902153048 54 225 0.0 0.0 0.00 0.03 0.02 89 1015.8
20260902151546 49 225 0.0 0.0 0.00 0.03 0.02 95 1016.0
20260902150040 47 224 0.0 0.0 0.00 0.03 0.02 97 1016.6
20260902144537 44 228 0.0 0.0 0.00 0.03 0.02 97 1016.7
20260902143037 43 228 0.0 0.0 0.00 0.03 0.02 96 1016.7
20260902141538 42 228 0.0 0.0 0.00 0.03 0.02 96 1016.6
20260902140039 42 228 0.0 0.0 0.00 0.03 0.02 96 1016.8
20260902134539 42 228 0.0 0.0 0.00 0.03 0.02 96 1016.9
20260902133035 42 228 0.0 0.0 0.00 0.03 0.02 96 1017.0
20260902131540 42 228 0.0 0.0 0.00 0.03 0.02 96 1016.9
20260902130048 42 228 0.0 0.0 0.00 0.03 0.02 95 1016.9
20260902124533 42 228 0.0 0.0 0.00 0.03 0.02 95 1017.0
20260902123032 43 228 0.0 0.0 0.00 0.03 0.02 95 1016.9
20260902121531 43 228 0.0 0.0 0.00 0.03 0.02 96 1016.8
20260902120030 43 229 0.0 0.0 0.00 0.03 0.02 95 1016.9
20260902114533 43 229 0.0 0.0 0.00 0.03 0.02 95 1016.9
20260902113028 43 229 0.0 0.0 0.00 0.03 0.02 95 1016.8
20260902111532 43 229 0.0 0.0 0.00 0.03 0.02 95 1016.6
20260902110041 43 229 0.0 0.0 0.00 0.03 0.02 94 1016.8
20260902104536 43 229 0.0 0.0 0.00 0.03 0.02 94 1016.6
20260902103032 44 229 0.0 0.0 0.00 0.03 0.02 94 1016.6
20260902101524 44 229 0.0 0.0 0.02 0.03 0.02 93 1016.7
20260902100024 44 229 0.0 0.0 0.02 0.03 0.02 93 1016.8
20260902094523 44 229 0.0 0.0 0.02 0.03 0.02 92 1016.9
20260902093034 44 229 0.0 0.0 0.02 0.03 0.02 90 1017.3
20260902091521 44 225 0.0 0.0 0.00 0.01 0.00 87 1016.9
20260902090020 44 225 0.0 0.0 0.00 0.01 0.00 87 1016.3
20260902084523 44 225 0.0 0.0 0.00 0.01 0.00 87 1016.6
20260902083020 44 225 0.0 0.0 0.00 0.01 0.00 85 1016.6
20260902081515 44 225 0.0 0.0 0.00 0.01 0.00 84 1016.8
20260902080023 44 225 0.0 0.0 0.00 0.01 0.00 83 1016.8
20260902074513 45 225 0.0 0.0 0.00 0.01 0.00 84 1016.8
20260902073024 45 225 0.0 0.0 0.00 0.01 0.00 83 1016.9
20260902071516 45 225 0.0 0.0 0.00 0.01 0.00 82 1016.9
20260902070009 45 225 0.0 0.0 0.00 0.01 0.00 82 1017.2
20260902064508 45 225 0.0 0.0 0.00 0.01 0.00 81 1017.1
20260902063012 45 225 0.0 0.0 0.00 0.01 0.00 82 1017.2
20260902061504 44 225 0.0 0.0 0.00 0.01 0.00 82 1017.2
20260902060001 44 225 0.0 0.0 0.00 0.01 0.01 82 1017.3
20260902054505 43 226 0.0 0.0 0.00 0.01 0.01 83 1017.2
20260902053001 43 226 0.0 0.0 0.00 0.01 0.01 82 1017.3
20260902051609 44 226 0.0 0.0 0.00 0.01 0.01 82 1017.2
20260902050101 44 226 0.0 0.0 0.00 0.01 0.01 80 1017.2
20260902044600 44 226 0.0 0.0 0.00 0.01 0.01 78 1017.2
20260902043059 45 226 0.0 0.0 0.00 0.01 0.01 77 1017.1
20260902041609 45 248 0.0 0.0 0.00 0.01 0.01 78 1017.0
20260902040058 46 248 0.0 0.0 0.00 0.01 0.01 76 1016.8
20260902034559 46 250 0.0 0.0 0.00 0.01 0.01 76 1016.5
20260902033059 47 282 0.0 0.0 0.00 0.01 0.01 73 1016.4
20260902031556 48 282 0.0 0.0 0.00 0.01 0.01 72 1016.1
20260902030056 48 282 0.0 0.0 0.00 0.01 0.01 71 1015.7
20260902024557 49 282 0.0 0.0 0.00 0.01 0.01 71 1015.6
20260902023055 50 282 0.0 0.0 0.00 0.01 0.01 68 1015.3
20260902021555 51 282 0.0 0.0 0.00 0.01 0.01 64 1015.2
20260902020057 52 282 0.0 0.0 0.00 0.01 0.01 64 1015.0
20260902014555 53 252 0.0 0.0 0.00 0.01 0.01 62 1014.9
20260902013052 55 252 0.0 0.0 0.00 0.01 0.01 59 1014.9
20260902011552 58 110 0.0 0.0 0.00 0.01 0.01 54 1015.0
20260902010050 58 356 0.0 0.0 0.00 0.01 0.01 50 1014.9
20260902004551 60 249 0.0 0.9 0.00 0.01 0.01 49 1014.8
20260902003055 62 270 0.0 0.9 0.00 0.01 0.01 44 1014.7
20260902001549 64 143 0.0 4.3 0.00 0.01 0.01 43 1014.8
20260902000111 65 249 0.0 0.9 0.00 0.01 0.01 45 1014.8
20260901234549 65 281 0.0 2.6 0.00 0.01 0.01 43 1014.9
20260901233049 67 267 0.0 1.7 0.00 0.01 0.01 43 1014.9
20260901231550 67 226 0.0 4.3 0.00 0.01 0.01 41 1014.9
20260901230050 67 271 0.0 5.2 0.00 0.01 0.01 44 1014.9
20260901224544 67 158 0.0 4.3 0.00 0.07 0.01 47 1015.1
20260901223043 68 165 0.0 3.5 0.00 0.07 0.01 47 1015.2
20260901221540 67 200 0.0 3.5 0.00 0.07 0.01 48 1015.3
20260901214536 64 128 0.0 4.3 0.00 0.09 0.01 53 1015.7
20260901213100 65 158 0.0 4.3 0.00 0.09 0.01 49 1015.9
20260901211533 65 293 0.0 1.7 0.00 0.09 0.01 52 1016.1
20260901210031 64 113 0.9 6.1 0.00 0.09 0.01 50 1016.5
20260901204536 65 110 0.0 5.2 0.00 0.11 0.01 48 1016.7
20260901203047 65 212 0.0 5.2 0.00 0.11 0.01 51 1016.8
20260901201526 65 98 2.6 7.8 0.00 0.11 0.01 47 1017.0